Hourly Data Report for July 20, 2013

All times are specified in Local Standard Time (LST). Add 1 hour to adjust for Daylight Saving Time where and when it is observed.

VICTORIA INTL A
BRITISH COLUMBIA

48°38'50.000" N
123°25'33.000" W
19.50 m
1018621
71799
YYJ

Download Data

Hourly Data (July 2013)
Hourly Data Report for July 20, 2013
Temp Definition
°C
Dew Point Temp Definition
°C
Rel Hum Definition
%
Wind Dir Definition
10's deg

Wind Spd Definition
km/h
Visibility Definition
km
Stn Press Definition
kPa
Hmdx Definition


Wind Chill Definition


Weather Definition


TIME
00:00 Legend Double Dagger 14.7 11.7 82 7 4 48.3 101.50     LegendNANA
01:00 Legend Double Dagger 14.0 11.9 87 10 6 48.3 101.50     Clear
02:00 Legend Double Dagger 13.7 12.3 91 12 5 48.3 101.48     LegendNANA
03:00 Legend Double Dagger 12.9 11.8 93 12 4 48.3 101.49     LegendNANA
04:00 Legend Double Dagger 12.8 12.0 95 12 5 48.3 101.51     Clear
05:00 Legend Double Dagger 12.5 11.7 95 15 6 48.3 101.52     LegendNANA
06:00 Legend Double Dagger 14.0 12.2 89 12 4 48.3 101.55     LegendNANA
07:00 Legend Double Dagger 14.6 12.5 87 13 10 48.3 101.57     Clear
08:00 Legend Double Dagger 15.3 12.3 82 12 14 48.3 101.58     LegendNANA
09:00 Legend Double Dagger 16.3 12.5 78 12 14 48.3 101.56     LegendNANA
10:00 Legend Double Dagger 17.6 12.6 72 9 14 48.3 101.56     Clear
11:00 Legend Double Dagger 18.6 12.7 68 12 14 48.3 101.54     LegendNANA
12:00 Legend Double Dagger 18.8 12.6 67 12 14 48.3 101.49     LegendNANA
13:00 Legend Double Dagger 19.3 12.7 65 11 13 48.3 101.48     Clear
14:00 Legend Double Dagger 19.8 12.4 62 10 15 48.3 101.45     LegendNANA
15:00 Legend Double Dagger 18.6 12.2 66 9 17 48.3 101.39     LegendNANA
16:00 Legend Double Dagger 20.1 12.5 61 9 11 48.3 101.32     Clear
17:00 Legend Double Dagger 17.7 12.0 69 3 11 48.3 101.28     LegendNANA
18:00 Legend Double Dagger 18.2 12.1 67 6 11 48.3 101.23     LegendNANA
19:00 Legend Double Dagger 17.9 12.0 68 8 7 48.3 101.21     Clear
20:00 Legend Double Dagger 17.1 11.9 71 8 5 48.3 101.21     LegendNANA
21:00 Legend Double Dagger 14.3 11.3 82 6 6 48.3 101.22     LegendNANA
22:00 Legend Double Dagger 14.0 11.4 84 5 6 48.3 101.22     Clear
23:00 Legend Double Dagger 13.7 11.6 87 10 2 48.3 101.20     LegendNANA

Notes on Data Quality.

Legend

  • E = Estimated
  • M = Missing
  • NA = Not Available
  • ‡ = Partner data that is not subject to review by the National Climate Archives
Date modified: